Greenland, AR

12:53 AM CST on February 20, 2017 (GMT -0600)
Drake

Weather History for KFYV - August, 2014

Change the Weather History Date:

Sunday, August 10, 2014

  Actual Average Record
Temperature  
Mean Temperature 76 °F 78 °F  
Max Temperature 87 °F 90 °F 101 °F (1954)
Min Temperature 64 °F 66 °F 52 °F (1965)
Cooling Degree Days 11 13  
Month to date cooling degree days 106 130  
Year to date cooling degree days 768 879  
Since 1 June cooling degree days 620 766  
Growing Degree Days 25 (Base 50)    
Moisture  
Dew Point 69 °F    
Average Humidity 81    
Maximum Humidity 100    
Minimum Humidity 61    
Precipitation  
Precipitation T in 0.10 in 1.60 in (2011)
Month to date precipitation 1.66 1.00  
Year to date precipitation 22.71 29.65  
Sea Level Pressure  
Sea Level Pressure 30.00 in    
Wind  
Wind Speed 4 mph (SW)    
Max Wind Speed 13 mph    
Max Gust Speed 17 mph    
Visibility 8 miles    
Events Fog , Rain    
T = Trace of Precipitation, MM = Missing Value Source: NWS Daily Summary

Daily Weather History Graph

Daily Weather History Graph

Search for Another Location

Airport or City:

Trip Planner

Search our weather history database for the weather conditions in past years. The results will help you decide how hot, cold, wet, or windy it might be!

Date:

Astronomy

Aug. 10, 2014 Rise Set
Actual Time 6:31 AM CDT 8:12 PM CDT
Civil Twilight 6:03 AM CDT 8:39 PM CDT
Nautical Twilight 5:30 AM CDT 9:12 PM CDT
Astronomical Twilight 4:55 AM CDT 9:48 PM CDT
Moon 8:02 PM CDT (8/10) 6:22 AM CDT (8/10)
Length of Visible Light 14h 36m
Length of Day
13h 41m
Full, 100% of the Moon is Illuminated
Aug 10
Full
Aug 10
Full
Aug 17
Last Quarter
Aug 25
New
Sep 2
First Quarter

Hourly Weather History & Observations

Time (CDT) Temp. Heat Index Dew Point Humidity Pressure Visibility Wind Dir Wind Speed Gust Speed Precip Events Conditions
12:53 AM 66.0 °F - 66.0 °F 100% 29.98 in 3.0 mi Calm Calm - N/A   Clear
1:51 AM 64.4 °F - 64.4 °F 100% 30.03 in 1.5 mi Calm Calm - N/A   Scattered Clouds
1:53 AM 66.0 °F - 66.0 °F 100% 29.99 in 0.8 mi ENE 3.5 mph - N/A   Mist
2:53 AM 64.9 °F - 64.9 °F 100% 30.01 in 0.5 mi Calm Calm - N/A Fog Fog
3:53 AM 64.4 °F - 64.4 °F 100% 30.03 in 0.2 mi Calm Calm - N/A Fog Fog
4:04 AM 64.4 °F - 64.4 °F 100% 30.03 in 2.0 mi Calm Calm - N/A   Overcast
4:11 AM 64.4 °F - 64.4 °F 100% 30.03 in 10.0 mi Calm Calm - N/A   Mostly Cloudy
4:22 AM 64.4 °F - 64.4 °F 100% 30.03 in 10.0 mi Calm Calm - N/A   Scattered Clouds
4:53 AM 64.0 °F - 64.0 °F 100% 30.00 in 10.0 mi Calm Calm - N/A   Clear
5:53 AM 64.0 °F - 64.0 °F 100% 30.00 in 10.0 mi Calm Calm - N/A   Clear
6:53 AM 64.4 °F - 64.4 °F 100% 30.06 in 10.0 mi Calm Calm - N/A   Mostly Cloudy
7:53 AM 68.0 °F - 68.0 °F 100% 30.02 in 10.0 mi South 5.8 mph - N/A   Clear
8:53 AM 75.2 °F - 71.6 °F 89% 30.05 in 10.0 mi Calm Calm - N/A Rain Light Rain
9:53 AM 73.9 °F - 71.1 °F 91% 30.01 in 10.0 mi South 9.2 mph - 0.00 in   Clear
10:53 AM 78.1 °F - 71.1 °F 79% 30.01 in 10.0 mi SSW 10.4 mph - N/A   Scattered Clouds
11:53 AM 82.0 °F 87.9 °F 73.9 °F 76% 30.01 in 10.0 mi South 10.4 mph - N/A   Clear
12:53 PM 84.0 °F 91.2 °F 73.9 °F 72% 30.01 in 10.0 mi SW 10.4 mph 16.1 mph N/A   Partly Cloudy
1:53 PM 84.9 °F 90.7 °F 72.0 °F 65% 30.01 in 10.0 mi WSW 6.9 mph - N/A   Partly Cloudy
2:53 PM 86.0 °F 93.4 °F 73.4 °F 66% 30.02 in 10.0 mi Variable 4.6 mph - N/A   Partly Cloudy
3:53 PM 86.0 °F 92.2 °F 72.0 °F 63% 29.96 in 10.0 mi WSW 9.2 mph - N/A   Partly Cloudy
4:53 PM 84.0 °F 90.2 °F 73.0 °F 69% 29.96 in 10.0 mi West 6.9 mph - N/A   Clear
5:53 PM 86.0 °F 93.8 °F 73.9 °F 67% 29.93 in 10.0 mi Variable 4.6 mph - N/A   Partly Cloudy
6:53 PM 84.2 °F 90.9 °F 73.4 °F 70% 29.97 in 10.0 mi WNW 4.6 mph - N/A   Scattered Clouds
7:53 PM 81.0 °F 85.8 °F 73.0 °F 77% 29.95 in 10.0 mi West 4.6 mph - N/A   Clear
8:53 PM 75.9 °F - 73.9 °F 94% 29.96 in 10.0 mi Calm Calm - N/A   Clear
9:53 PM 75.0 °F - 73.9 °F 96% 29.97 in 9.0 mi Calm Calm - N/A   Partly Cloudy
10:53 PM 73.4 °F - 73.4 °F 100% 30.04 in 9.0 mi South 3.5 mph - N/A   Clear
11:53 PM 72.0 °F - 72.0 °F 100% 29.99 in 5.0 mi Calm Calm - N/A   Clear